Location: Kelshall
(52.0000°N, 0.0500°W)
Time: 03:35:28
(UTC+00:00)

SL-08 RB Rocket - Pass Details

Date: 18 September 2020
Orbit: 646 x 685 km, 97.8° (Epoch: 19 October)

Event Time Altitude Azimuth Distance (km) Brightness Sun altitude
Exits shadow 19:32:46 - 170° (S) 2,981 6.8 -13.7°
Reaches altitude 10° 19:34:55 10° 172° (S) 2,102 6.0 -14.0°
Maximum altitude 19:39:31 72° 257° (WSW) 706 3.9 -14.7°
Drops below altitude 10° 19:44:05 10° 342° (NNW) 2,094 6.8 -15.3°
Sets 19:46:19 0° 345° (NNW) 3,005 7.7 -15.6°
